Home > Weather > Neustrelitz > Past weeks

Flag for Germany Weather for the Past 2 Weeks in Neustrelitz, Mecklenburg-Western Pomerania, Germany

Now
45 °F

Fog.


Feels Like: 41 °F
Forecast: 41 / 47 °F
Wind: 6 mph from Southwest

Location: Laage

Current Time: Feb 6, 2016 at 4:22:36 AM

Latest Report: Feb 6, 2016 at 3:20 AM


Visibility: 1 mi

Pressure: 29.98 "Hg

Humidity: 100%

Dew point: 45 °F

Location of NeustrelitzLocation

Historic Weather in Neustrelitz — Graph

°F

Neustrelitz Temperature Yesterday

Maximum temperature yesterday: 43 °F (at 10:20 PM)
Minimum temperature yesterday: 32 °F (at 2:20 AM)
Average temperature yesterday: 37 °F

High & Low Weather Summary for the Past Weeks

 TemperatureHumidityPressure
High52 °F (Jan 27, 5:20 PM)100% (Jan 22, 1:20 PM)30.48 "Hg (Jan 22, 1:20 PM)
Low16 °F (Jan 22, 5:20 AM)57% (Feb 2, 4:20 PM)29.50 "Hg (Jan 30, 4:20 PM)
Average40 °F88%29.95 "Hg
* Reported Jan 22 2:20 AM — Feb 6 2:48 AM, Neustrelitz, Weather by CustomWeather, © 2016

Note: Actual official high and low records may vary slightly from our data, if they occured in-between our weather recording intervals... More about our weather records

Advertising

Neustrelitz Weather History for the Previous 24 Hours

 ConditionsComfort  
Time TempWeatherWind HumidityBarometerVisibility
2:48 AM
Sat, Feb 6
45 °FDrizzle. Fog.7 mph93%30.01 "Hg1 mi
2:20 AM45 °FDrizzle. Fog.6 mph93%30.01 "Hg1 mi
1:20 AM43 °FDrizzle. Fog.6 mph100%30.01 "Hg1 mi
12:20 AM43 °FDrizzle. Fog.8 mph100%30.04 "Hg2 mi
11:20 PM
Fri, Feb 5
43 °FDrizzle. Fog.8 mph100%30.04 "Hg1 mi
10:20 PM43 °FFog.6 mph100%30.04 "Hg1 mi
9:20 PM41 °FFog.9 mph100%30.04 "Hg1 mi
8:50 PM41 °FDrizzle. Fog.8 mph100%30.04 "Hg1 mi
8:20 PM41 °FDrizzle. Fog.8 mph100%30.04 "Hg2 mi
7:20 PM39 °FDrizzle. Fog.7 mph100%30.04 "Hg2 mi
6:57 PM39 °FDrizzle. Fog.8 mph100%30.04 "Hg1 mi
6:20 PM39 °FDrizzle. Fog.8 mph100%30.04 "Hg3 mi
5:20 PM39 °FDrizzle. Fog.8 mph93%30.04 "Hg2 mi
4:20 PM37 °FDrizzle. Fog.8 mph100%30.07 "Hg1 mi
3:50 PM39 °FDrizzle. Fog.9 mph93%30.07 "Hg2 mi
3:20 PM39 °FDrizzle. Mostly cloudy.9 mph93%30.07 "Hg4 mi
3:03 PM39 °FDrizzle. Fog.8 mph93%30.09 "Hg3 mi
2:20 PM39 °FLight rain. Broken clouds.8 mph93%30.09 "HgN/A
1:20 PM39 °FLight rain. Partly sunny.7 mph87%30.12 "HgN/A
12:20 PM37 °FPartly sunny.7 mph93%30.15 "Hg6 mi
11:20 AM36 °FMore clouds than sun.6 mph93%30.15 "Hg4 mi
10:20 AM36 °FPartly sunny.8 mph93%30.18 "Hg5 mi
9:20 AM34 °FPartly sunny.8 mph93%30.15 "HgN/A
8:20 AM34 °FBroken clouds.8 mph93%30.15 "HgN/A
7:20 AM34 °FPartly cloudy.7 mph93%30.15 "HgN/A
6:20 AM32 °FPassing clouds.7 mph93%30.15 "HgN/A
5:20 AM32 °FPassing clouds.9 mph93%30.15 "HgN/A
4:20 AM32 °FChilly.8 mph93%30.15 "HgN/A
Weather by CustomWeather, © 2016

See weather overviewHow to use our weather pages